Year,Month,Day,Hour,Minute,Value (Times are PST for temperature in C)
2015,07,18,00,00,18.10
2015,07,18,00,01,18.10
2015,07,18,00,02,18.10
2015,07,18,00,03,18.10
2015,07,18,00,04,18.10
2015,07,18,00,05,18.00
2015,07,18,00,06,17.90
2015,07,18,00,07,17.90
2015,07,18,00,08,17.90
2015,07,18,00,09,17.90
2015,07,18,00,10,17.90
2015,07,18,00,11,17.80
2015,07,18,00,12,17.80
2015,07,18,00,13,17.70
2015,07,18,00,14,17.70
2015,07,18,00,15,17.70
2015,07,18,00,16,17.60
2015,07,18,00,17,17.60
2015,07,18,00,18,17.50
2015,07,18,00,19,17.40
2015,07,18,00,20,17.40
2015,07,18,00,21,17.30
2015,07,18,00,22,17.30
2015,07,18,00,23,17.30
2015,07,18,00,24,17.30
2015,07,18,00,25,17.30
2015,07,18,00,26,17.30
2015,07,18,00,27,17.20
2015,07,18,00,28,17.20
2015,07,18,00,29,17.20
2015,07,18,00,30,17.20
2015,07,18,00,31,17.10
2015,07,18,00,32,17.10
2015,07,18,00,33,17.10
2015,07,18,00,34,17.10
2015,07,18,00,35,17.10
2015,07,18,00,36,17.10
2015,07,18,00,37,17.00
2015,07,18,00,38,17.00
2015,07,18,00,39,17.00
2015,07,18,00,40,17.00
2015,07,18,00,41,17.00
2015,07,18,00,42,17.00
2015,07,18,00,43,17.00
2015,07,18,00,44,16.90
2015,07,18,00,45,16.90
2015,07,18,00,46,16.90
2015,07,18,00,47,16.80
2015,07,18,00,48,16.80
2015,07,18,00,49,16.70
2015,07,18,00,50,16.70
2015,07,18,00,51,16.70
2015,07,18,00,52,16.70
2015,07,18,00,53,16.60
2015,07,18,00,54,16.50
2015,07,18,00,55,16.40
2015,07,18,00,56,16.40
2015,07,18,00,57,16.30
2015,07,18,00,58,16.20
2015,07,18,00,59,16.20
2015,07,18,01,00,16.10
2015,07,18,01,01,16.10
2015,07,18,01,02,15.90
2015,07,18,01,03,15.90
2015,07,18,01,04,15.80
2015,07,18,01,05,15.70
2015,07,18,01,06,15.70
2015,07,18,01,07,15.60
2015,07,18,01,08,15.50
2015,07,18,01,09,15.50
2015,07,18,01,10,15.40
2015,07,18,01,11,15.40
2015,07,18,01,12,15.30
2015,07,18,01,13,15.30
2015,07,18,01,14,15.30
2015,07,18,01,15,15.20
2015,07,18,01,16,15.20
2015,07,18,01,17,15.20
2015,07,18,01,18,15.10
2015,07,18,01,19,15.10
2015,07,18,01,20,15.10
2015,07,18,01,21,15.00
2015,07,18,01,22,15.00
2015,07,18,01,23,15.00
2015,07,18,01,24,14.90
2015,07,18,01,25,14.90
2015,07,18,01,26,14.80
2015,07,18,01,27,14.80
2015,07,18,01,28,14.80
2015,07,18,01,29,14.80
2015,07,18,01,30,14.70
2015,07,18,01,31,14.70
2015,07,18,01,32,14.60
2015,07,18,01,33,14.60
2015,07,18,01,34,14.60
2015,07,18,01,35,14.60
2015,07,18,01,36,14.50
2015,07,18,01,37,14.50
2015,07,18,01,38,14.50
2015,07,18,01,39,14.40
2015,07,18,01,40,14.40
2015,07,18,01,41,14.40
2015,07,18,01,42,14.30
2015,07,18,01,43,14.30
2015,07,18,01,44,14.30
2015,07,18,01,45,14.20
2015,07,18,01,46,14.20
2015,07,18,01,47,14.20
2015,07,18,01,48,14.20
2015,07,18,01,49,14.20
2015,07,18,01,50,14.20
2015,07,18,01,51,14.20
2015,07,18,01,52,14.20
2015,07,18,01,53,14.20
2015,07,18,01,54,14.10
2015,07,18,01,55,14.10
2015,07,18,01,56,14.10
2015,07,18,01,57,14.10
2015,07,18,01,58,14.00
2015,07,18,01,59,14.00
2015,07,18,02,00,14.00
2015,07,18,02,01,13.90
2015,07,18,02,02,13.90
2015,07,18,02,03,13.90
2015,07,18,02,04,13.80
2015,07,18,02,05,13.80
2015,07,18,02,06,13.80
2015,07,18,02,07,13.70
2015,07,18,02,08,13.70
2015,07,18,02,09,13.70
2015,07,18,02,10,13.70
2015,07,18,02,11,13.70
2015,07,18,02,12,13.70
2015,07,18,02,13,13.60
2015,07,18,02,14,13.60
2015,07,18,02,15,13.60
2015,07,18,02,16,13.50
2015,07,18,02,17,13.50
2015,07,18,02,18,13.50
2015,07,18,02,19,13.50
2015,07,18,02,20,13.50
2015,07,18,02,21,13.40
2015,07,18,02,22,13.40
2015,07,18,02,23,13.40
2015,07,18,02,24,13.40
2015,07,18,02,25,13.40
2015,07,18,02,26,13.40
2015,07,18,02,27,13.30
2015,07,18,02,28,13.40
2015,07,18,02,29,13.40
2015,07,18,02,30,13.40
2015,07,18,02,31,13.40
2015,07,18,02,32,13.40
2015,07,18,02,33,13.40
2015,07,18,02,34,13.40
2015,07,18,02,35,13.40
2015,07,18,02,36,13.40
2015,07,18,02,37,13.40
2015,07,18,02,38,13.40
2015,07,18,02,39,13.40
2015,07,18,02,40,13.40
2015,07,18,02,41,13.40
2015,07,18,02,42,13.40
2015,07,18,02,43,13.40
2015,07,18,02,44,13.40
2015,07,18,02,45,13.40
2015,07,18,02,46,13.40
2015,07,18,02,47,13.40
2015,07,18,02,48,13.40
2015,07,18,02,49,13.50
2015,07,18,02,50,13.50
2015,07,18,02,51,13.50
2015,07,18,02,52,13.50
2015,07,18,02,53,13.50
2015,07,18,02,54,13.50
2015,07,18,02,55,13.50
2015,07,18,02,56,13.50
2015,07,18,02,57,13.50
2015,07,18,02,58,13.50
2015,07,18,02,59,13.50
2015,07,18,03,00,13.40
2015,07,18,03,01,13.40
2015,07,18,03,02,13.40
2015,07,18,03,03,13.40
2015,07,18,03,04,13.40
2015,07,18,03,05,13.40
2015,07,18,03,06,13.30
2015,07,18,03,07,13.30
2015,07,18,03,08,13.30
2015,07,18,03,09,13.30
2015,07,18,03,10,13.30
2015,07,18,03,11,13.30
2015,07,18,03,12,13.30
2015,07,18,03,13,13.30
2015,07,18,03,14,13.30
2015,07,18,03,15,13.30
2015,07,18,03,16,13.30
2015,07,18,03,17,13.30
2015,07,18,03,18,13.30
2015,07,18,03,19,13.30
2015,07,18,03,20,13.30
2015,07,18,03,21,13.20
2015,07,18,03,22,13.20
2015,07,18,03,23,13.20
2015,07,18,03,24,13.20
2015,07,18,03,25,13.20
2015,07,18,03,26,13.20
2015,07,18,03,27,13.20
2015,07,18,03,28,13.20
2015,07,18,03,29,13.20
2015,07,18,03,30,13.20
2015,07,18,03,31,13.20
2015,07,18,03,32,13.20
2015,07,18,03,33,13.20
2015,07,18,03,34,13.20
2015,07,18,03,35,13.20
2015,07,18,03,36,13.20
2015,07,18,03,37,13.20
2015,07,18,03,38,13.20
2015,07,18,03,39,13.20
2015,07,18,03,40,13.20
2015,07,18,03,41,13.20
2015,07,18,03,42,13.20
2015,07,18,03,43,13.20
2015,07,18,03,44,13.20
2015,07,18,03,45,13.20
2015,07,18,03,46,13.20
2015,07,18,03,47,13.20
2015,07,18,03,48,13.20
2015,07,18,03,49,13.20
2015,07,18,03,50,13.30
2015,07,18,03,51,13.30
2015,07,18,03,52,13.30
2015,07,18,03,53,13.30
2015,07,18,03,54,13.30
2015,07,18,03,55,13.20
2015,07,18,03,56,13.20
2015,07,18,03,57,13.20
2015,07,18,03,58,13.20
2015,07,18,03,59,13.20
2015,07,18,04,00,13.20
2015,07,18,04,01,13.20
2015,07,18,04,02,13.20
2015,07,18,04,03,13.20
2015,07,18,04,04,13.20
2015,07,18,04,05,13.20
2015,07,18,04,06,13.20
2015,07,18,04,07,13.20
2015,07,18,04,08,13.10
2015,07,18,04,09,13.10
2015,07,18,04,10,13.10
2015,07,18,04,11,13.10
2015,07,18,04,12,13.10
2015,07,18,04,13,13.10
2015,07,18,04,14,13.10
2015,07,18,04,15,13.10
2015,07,18,04,16,13.10
2015,07,18,04,17,13.10
2015,07,18,04,18,13.10
2015,07,18,04,19,13.10
2015,07,18,04,20,13.10
2015,07,18,04,21,13.10
2015,07,18,04,22,13.10
2015,07,18,04,23,13.10
2015,07,18,04,24,13.10
2015,07,18,04,25,13.10
2015,07,18,04,26,13.10
2015,07,18,04,27,13.10
2015,07,18,04,28,13.10
2015,07,18,04,29,13.10
2015,07,18,04,30,13.00
2015,07,18,04,31,13.00
2015,07,18,04,32,13.00
2015,07,18,04,33,13.00
2015,07,18,04,34,13.00
2015,07,18,04,35,13.00
2015,07,18,04,36,13.00
2015,07,18,04,37,13.00
2015,07,18,04,38,13.00
2015,07,18,04,39,13.00
2015,07,18,04,40,13.00
2015,07,18,04,41,13.00
2015,07,18,04,42,13.00
2015,07,18,04,43,13.10
2015,07,18,04,44,13.10
2015,07,18,04,45,13.10
2015,07,18,04,46,13.10
2015,07,18,04,47,13.10
2015,07,18,04,48,13.10
2015,07,18,04,49,13.10
2015,07,18,04,50,13.10
2015,07,18,04,51,13.10
2015,07,18,04,52,13.10
2015,07,18,04,53,13.10
2015,07,18,04,54,13.10
2015,07,18,04,55,13.10
2015,07,18,04,56,13.10
2015,07,18,04,57,13.10
2015,07,18,04,58,13.10
2015,07,18,04,59,13.10
2015,07,18,05,00,13.10
2015,07,18,05,01,13.10
2015,07,18,05,02,13.10
2015,07,18,05,03,13.10
2015,07,18,05,04,13.10
2015,07,18,05,05,13.10
2015,07,18,05,06,13.10
2015,07,18,05,07,13.10
2015,07,18,05,08,13.10
2015,07,18,05,09,13.10
2015,07,18,05,10,13.00
2015,07,18,05,11,13.00
2015,07,18,05,12,13.00
2015,07,18,05,13,13.00
2015,07,18,05,14,13.00
2015,07,18,05,15,13.00
2015,07,18,05,16,13.00
2015,07,18,05,17,13.00
2015,07,18,05,18,13.00
2015,07,18,05,19,13.00
2015,07,18,05,20,13.00
2015,07,18,05,21,13.00
2015,07,18,05,22,13.10
2015,07,18,05,23,13.10
2015,07,18,05,24,13.20
2015,07,18,05,25,13.20
2015,07,18,05,26,13.20
2015,07,18,05,27,13.30
2015,07,18,05,28,13.30
2015,07,18,05,29,13.30
2015,07,18,05,30,13.30
2015,07,18,05,31,13.30
2015,07,18,05,32,13.30
2015,07,18,05,33,13.30
2015,07,18,05,34,13.40
2015,07,18,05,35,13.40
2015,07,18,05,36,13.40
2015,07,18,05,37,13.50
2015,07,18,05,38,13.50
2015,07,18,05,39,13.60
2015,07,18,05,40,13.60
2015,07,18,05,41,13.60
2015,07,18,05,42,13.60
2015,07,18,05,43,13.60
2015,07,18,05,44,13.60
2015,07,18,05,45,13.70
2015,07,18,05,46,13.70
2015,07,18,05,47,13.70
2015,07,18,05,48,13.70
2015,07,18,05,49,13.60
2015,07,18,05,50,13.60
2015,07,18,05,51,13.50
2015,07,18,05,52,13.50
2015,07,18,05,53,13.40
2015,07,18,05,54,13.30
2015,07,18,05,55,13.20
2015,07,18,05,56,13.10
2015,07,18,05,57,13.10
2015,07,18,05,58,13.10
2015,07,18,05,59,13.00
2015,07,18,06,00,13.00
2015,07,18,06,01,13.00
2015,07,18,06,02,13.00
2015,07,18,06,03,13.00
2015,07,18,06,04,13.00
2015,07,18,06,05,13.00
2015,07,18,06,06,13.00
2015,07,18,06,07,13.00
2015,07,18,06,08,13.00
2015,07,18,06,09,13.00
2015,07,18,06,10,13.00
2015,07,18,06,11,13.00
2015,07,18,06,12,13.00
2015,07,18,06,13,13.00
2015,07,18,06,14,13.00
2015,07,18,06,15,13.10
2015,07,18,06,16,13.10
2015,07,18,06,17,13.10
2015,07,18,06,18,13.10
2015,07,18,06,19,13.10
2015,07,18,06,20,13.10
2015,07,18,06,21,13.10
2015,07,18,06,22,13.10
2015,07,18,06,23,13.10
2015,07,18,06,24,13.20
2015,07,18,06,25,13.20
2015,07,18,06,26,13.20
2015,07,18,06,27,13.30
2015,07,18,06,28,13.30
2015,07,18,06,29,13.30
2015,07,18,06,30,13.40
2015,07,18,06,31,13.40
2015,07,18,06,32,13.50
2015,07,18,06,33,13.50
2015,07,18,06,34,13.50
2015,07,18,06,35,13.60
2015,07,18,06,36,13.60
2015,07,18,06,37,13.70
2015,07,18,06,38,13.70
2015,07,18,06,39,13.80
2015,07,18,06,40,13.90
2015,07,18,06,41,14.00
2015,07,18,06,42,14.00
2015,07,18,06,43,14.10
2015,07,18,06,44,14.20
2015,07,18,06,45,14.20
2015,07,18,06,46,14.20
2015,07,18,06,47,14.30
2015,07,18,06,48,14.30
2015,07,18,06,49,14.40
2015,07,18,06,50,14.50
2015,07,18,06,51,14.60
2015,07,18,06,52,14.60
2015,07,18,06,53,14.70
2015,07,18,06,54,14.80
2015,07,18,06,55,14.90
2015,07,18,06,56,14.80
2015,07,18,06,57,14.80
2015,07,18,06,58,14.90
2015,07,18,06,59,14.90
2015,07,18,07,00,14.90
2015,07,18,07,01,15.00
2015,07,18,07,02,15.00
2015,07,18,07,03,15.00
2015,07,18,07,04,15.10
2015,07,18,07,05,15.10
2015,07,18,07,06,15.20
2015,07,18,07,07,15.20
2015,07,18,07,08,15.30
2015,07,18,07,09,15.30
2015,07,18,07,10,15.30
2015,07,18,07,11,15.40
2015,07,18,07,12,15.50
2015,07,18,07,13,15.50
2015,07,18,07,14,15.60
2015,07,18,07,15,15.70
2015,07,18,07,16,15.80
2015,07,18,07,17,15.80
2015,07,18,07,18,15.90
2015,07,18,07,19,16.10
2015,07,18,07,20,16.10
2015,07,18,07,21,16.20
2015,07,18,07,22,16.30
2015,07,18,07,23,16.30
2015,07,18,07,24,16.40
2015,07,18,07,25,16.50
2015,07,18,07,26,16.60
2015,07,18,07,27,16.60
2015,07,18,07,28,16.70
2015,07,18,07,29,16.70
2015,07,18,07,30,16.70
2015,07,18,07,31,16.70
2015,07,18,07,32,16.70
2015,07,18,07,33,16.70
2015,07,18,07,34,16.70
2015,07,18,07,35,16.70
2015,07,18,07,36,16.70
2015,07,18,07,37,16.80
2015,07,18,07,38,16.90
2015,07,18,07,39,16.90
2015,07,18,07,40,17.00
2015,07,18,07,41,17.10
2015,07,18,07,42,17.20
2015,07,18,07,43,17.40
2015,07,18,07,44,17.50
2015,07,18,07,45,17.70
2015,07,18,07,46,17.80
2015,07,18,07,47,18.00
2015,07,18,07,48,18.10
2015,07,18,07,49,18.20
2015,07,18,07,50,18.30
2015,07,18,07,51,18.20
2015,07,18,07,52,18.10
2015,07,18,07,53,17.90
2015,07,18,07,54,17.80
2015,07,18,07,55,17.70
2015,07,18,07,56,17.60
2015,07,18,07,57,17.60
2015,07,18,07,58,17.60
2015,07,18,07,59,17.60
2015,07,18,08,00,17.50
2015,07,18,08,01,17.60
2015,07,18,08,02,17.60
2015,07,18,08,03,17.70
2015,07,18,08,04,17.80
2015,07,18,08,05,17.90
2015,07,18,08,06,17.90
2015,07,18,08,07,18.00
2015,07,18,08,08,18.10
2015,07,18,08,09,18.20
2015,07,18,08,10,18.20
2015,07,18,08,11,18.30
2015,07,18,08,12,18.40
2015,07,18,08,13,18.50
2015,07,18,08,14,18.60
2015,07,18,08,15,18.70
2015,07,18,08,16,18.70
2015,07,18,08,17,18.70
2015,07,18,08,18,18.70
2015,07,18,08,19,18.60
2015,07,18,08,20,18.60
2015,07,18,08,21,18.60
2015,07,18,08,22,18.50
2015,07,18,08,23,18.50
2015,07,18,08,24,18.50
2015,07,18,08,25,18.50
2015,07,18,08,26,18.50
2015,07,18,08,27,18.60
2015,07,18,08,28,18.70
2015,07,18,08,29,18.80
2015,07,18,08,30,18.90
2015,07,18,08,31,19.00
2015,07,18,08,32,19.20
2015,07,18,08,33,19.30
2015,07,18,08,34,19.30
2015,07,18,08,35,19.40
2015,07,18,08,36,19.40
2015,07,18,08,37,19.50
2015,07,18,08,38,19.30
2015,07,18,08,39,19.00
2015,07,18,08,40,18.90
2015,07,18,08,41,18.70
2015,07,18,08,42,18.50
2015,07,18,08,43,18.40
2015,07,18,08,44,18.30
2015,07,18,08,45,18.30
2015,07,18,08,46,18.20
2015,07,18,08,47,18.10
2015,07,18,08,48,18.10
2015,07,18,08,49,18.10
2015,07,18,08,50,18.00
2015,07,18,08,51,17.90
2015,07,18,08,52,17.90
2015,07,18,08,53,17.80
2015,07,18,08,54,17.80
2015,07,18,08,55,17.80
2015,07,18,08,56,17.90
2015,07,18,08,57,18.00
2015,07,18,08,58,18.20
2015,07,18,08,59,18.30
2015,07,18,09,00,18.50
2015,07,18,09,01,18.60
2015,07,18,09,02,18.90
2015,07,18,09,03,19.10
2015,07,18,09,04,19.30
2015,07,18,09,05,19.50
2015,07,18,09,06,19.60
2015,07,18,09,07,19.80
2015,07,18,09,08,19.90
2015,07,18,09,09,20.00
2015,07,18,09,10,20.20
2015,07,18,09,11,20.30
2015,07,18,09,12,20.40
2015,07,18,09,13,20.50
2015,07,18,09,14,20.50
2015,07,18,09,15,20.60
2015,07,18,09,16,20.70
2015,07,18,09,17,20.70
2015,07,18,09,18,20.80
2015,07,18,09,19,20.90
2015,07,18,09,20,20.90
2015,07,18,09,21,21.00
2015,07,18,09,22,21.00
2015,07,18,09,23,21.10
2015,07,18,09,24,21.10
2015,07,18,09,25,21.20
2015,07,18,09,26,21.30
2015,07,18,09,27,21.40
2015,07,18,09,28,21.50
2015,07,18,09,29,21.60
2015,07,18,09,30,21.60
2015,07,18,09,31,21.70
2015,07,18,09,32,21.80
2015,07,18,09,33,21.80
2015,07,18,09,34,21.90
2015,07,18,09,35,21.90
2015,07,18,09,36,22.00
2015,07,18,09,37,22.00
2015,07,18,09,38,22.00
2015,07,18,09,39,22.00
2015,07,18,09,40,22.00
2015,07,18,09,41,22.00
2015,07,18,09,42,22.10
2015,07,18,09,43,22.00
2015,07,18,09,44,21.50
2015,07,18,09,45,21.00
2015,07,18,09,46,20.50
2015,07,18,09,47,19.80
2015,07,18,09,48,19.40
2015,07,18,09,49,19.10
2015,07,18,09,50,19.00
2015,07,18,09,51,18.90
2015,07,18,09,52,18.70
2015,07,18,09,53,18.70
2015,07,18,09,54,18.70
2015,07,18,09,55,18.60
2015,07,18,09,56,18.50
2015,07,18,09,57,18.50
2015,07,18,09,58,18.40
2015,07,18,09,59,18.40
2015,07,18,10,00,18.40
2015,07,18,10,01,18.30
2015,07,18,10,02,18.30
2015,07,18,10,03,18.30
2015,07,18,10,04,18.30
2015,07,18,10,05,18.40
2015,07,18,10,06,18.50
2015,07,18,10,07,18.60
2015,07,18,10,08,18.80
2015,07,18,10,09,19.00
2015,07,18,10,10,19.20
2015,07,18,10,11,19.50
2015,07,18,10,12,19.80
2015,07,18,10,13,20.10
2015,07,18,10,14,20.40
2015,07,18,10,15,20.60
2015,07,18,10,16,21.00
2015,07,18,10,17,21.20
2015,07,18,10,18,21.50
2015,07,18,10,19,21.70
2015,07,18,10,20,21.90
2015,07,18,10,21,22.00
2015,07,18,10,22,22.20
2015,07,18,10,23,22.30
2015,07,18,10,24,22.40
2015,07,18,10,25,22.50
2015,07,18,10,26,22.60
2015,07,18,10,27,22.60
2015,07,18,10,28,22.60
2015,07,18,10,29,22.60
2015,07,18,10,30,22.70
2015,07,18,10,31,22.70
2015,07,18,10,32,22.80
2015,07,18,10,33,22.80
2015,07,18,10,34,22.80
2015,07,18,10,35,22.90
2015,07,18,10,36,22.90
2015,07,18,10,37,22.80
2015,07,18,10,38,22.80
2015,07,18,10,39,22.80
2015,07,18,10,40,22.80
2015,07,18,10,41,22.70
2015,07,18,10,42,22.70
2015,07,18,10,43,22.70
2015,07,18,10,44,22.70
2015,07,18,10,45,22.70
2015,07,18,10,46,22.70
2015,07,18,10,47,22.70
2015,07,18,10,48,22.70
2015,07,18,10,49,22.80
2015,07,18,10,50,22.80
2015,07,18,10,51,22.80
2015,07,18,10,52,22.80
2015,07,18,10,53,22.80
2015,07,18,10,54,22.90
2015,07,18,10,55,22.90
2015,07,18,10,56,22.90
2015,07,18,10,57,22.90
2015,07,18,10,58,22.90
2015,07,18,10,59,22.90
2015,07,18,11,00,22.90
2015,07,18,11,01,22.90
2015,07,18,11,02,22.90
2015,07,18,11,03,22.90
2015,07,18,11,04,22.80
2015,07,18,11,05,22.80
2015,07,18,11,06,22.80
2015,07,18,11,07,22.70
2015,07,18,11,08,22.70
2015,07,18,11,09,22.70
2015,07,18,11,10,22.60
2015,07,18,11,11,22.60
2015,07,18,11,12,22.60
2015,07,18,11,13,22.60
2015,07,18,11,14,22.60
2015,07,18,11,15,22.70
2015,07,18,11,16,22.70
2015,07,18,11,17,22.80
2015,07,18,11,18,22.80
2015,07,18,11,19,22.90
2015,07,18,11,20,22.90
2015,07,18,11,21,22.90
2015,07,18,11,22,22.90
2015,07,18,11,23,22.90
2015,07,18,11,24,22.90
2015,07,18,11,25,23.00
2015,07,18,11,26,23.10
2015,07,18,11,27,23.20
2015,07,18,11,28,23.20
2015,07,18,11,29,23.30
2015,07,18,11,30,23.30
2015,07,18,11,31,23.40
2015,07,18,11,32,23.40
2015,07,18,11,33,23.60
2015,07,18,11,34,23.60
2015,07,18,11,35,23.60
2015,07,18,11,36,23.70
2015,07,18,11,37,23.70
2015,07,18,11,38,23.70
2015,07,18,11,39,23.70
2015,07,18,11,40,23.70
2015,07,18,11,41,23.70
2015,07,18,11,42,23.70
2015,07,18,11,43,23.70
2015,07,18,11,44,23.70
2015,07,18,11,45,23.70
2015,07,18,11,46,23.70
2015,07,18,11,47,23.70
2015,07,18,11,48,23.70
2015,07,18,11,49,23.60
2015,07,18,11,50,23.60
2015,07,18,11,51,23.60
2015,07,18,11,52,23.60
2015,07,18,11,53,23.60
2015,07,18,11,54,23.60
2015,07,18,11,55,23.60
2015,07,18,11,56,23.60
2015,07,18,11,57,23.60
2015,07,18,11,58,23.70
2015,07,18,11,59,23.70
2015,07,18,12,00,23.80
2015,07,18,12,01,23.90
2015,07,18,12,02,23.90
2015,07,18,12,03,24.00
2015,07,18,12,04,24.10
2015,07,18,12,05,24.10
2015,07,18,12,06,24.00
2015,07,18,12,07,23.90
2015,07,18,12,08,23.90
2015,07,18,12,09,23.90
2015,07,18,12,10,23.90
2015,07,18,12,11,23.90
2015,07,18,12,12,24.10
2015,07,18,12,13,24.10
2015,07,18,12,14,24.10
2015,07,18,12,15,24.10
2015,07,18,12,16,24.10
2015,07,18,12,17,24.20
2015,07,18,12,18,24.30
2015,07,18,12,19,24.30
2015,07,18,12,20,24.30
2015,07,18,12,21,24.40
2015,07,18,12,22,24.40
2015,07,18,12,23,24.50
2015,07,18,12,24,24.50
2015,07,18,12,25,24.60
2015,07,18,12,26,24.70
2015,07,18,12,27,24.70
2015,07,18,12,28,24.80
2015,07,18,12,29,24.80
2015,07,18,12,30,24.90
2015,07,18,12,31,25.00
2015,07,18,12,32,25.00
2015,07,18,12,33,25.00
2015,07,18,12,34,25.10
2015,07,18,12,35,25.10
2015,07,18,12,36,25.10
2015,07,18,12,37,25.10
2015,07,18,12,38,25.20
2015,07,18,12,39,25.10
2015,07,18,12,40,25.10
2015,07,18,12,41,25.10
2015,07,18,12,42,25.10
2015,07,18,12,43,25.00
2015,07,18,12,44,25.00
2015,07,18,12,45,25.00
2015,07,18,12,46,25.00
2015,07,18,12,47,25.10
2015,07,18,12,48,25.10
2015,07,18,12,49,25.10
2015,07,18,12,50,25.10
2015,07,18,12,51,25.10
2015,07,18,12,52,25.10
2015,07,18,12,53,25.20
2015,07,18,12,54,25.20
2015,07,18,12,55,25.30
2015,07,18,12,56,25.40
2015,07,18,12,57,25.40
2015,07,18,12,58,25.50
2015,07,18,12,59,25.60
2015,07,18,13,00,25.70
2015,07,18,13,01,25.70
2015,07,18,13,02,25.80
2015,07,18,13,03,25.80
2015,07,18,13,04,25.80
2015,07,18,13,05,25.90
2015,07,18,13,06,26.00
2015,07,18,13,07,26.10
2015,07,18,13,08,26.20
2015,07,18,13,09,26.40
2015,07,18,13,10,26.50
2015,07,18,13,11,26.60
2015,07,18,13,12,26.60
2015,07,18,13,13,26.50
2015,07,18,13,14,26.00
2015,07,18,13,15,25.50
2015,07,18,13,16,24.90
2015,07,18,13,17,24.10
2015,07,18,13,18,23.40
2015,07,18,13,19,23.00
2015,07,18,13,20,22.80
2015,07,18,13,21,22.60
2015,07,18,13,22,22.60
2015,07,18,13,23,22.60
2015,07,18,13,24,22.40
2015,07,18,13,25,22.20
2015,07,18,13,26,22.00
2015,07,18,13,27,22.00
2015,07,18,13,28,21.80
2015,07,18,13,29,21.80
2015,07,18,13,30,21.80
2015,07,18,13,31,21.80
2015,07,18,13,32,21.80
2015,07,18,13,33,21.80
2015,07,18,13,34,21.90
2015,07,18,13,35,21.80
2015,07,18,13,36,21.70
2015,07,18,13,37,21.60
2015,07,18,13,38,21.70
2015,07,18,13,39,21.80
2015,07,18,13,40,21.70
2015,07,18,13,41,21.50
2015,07,18,13,42,21.40
2015,07,18,13,43,21.50
2015,07,18,13,44,21.60
2015,07,18,13,45,21.50
2015,07,18,13,46,21.30
2015,07,18,13,47,21.20
2015,07,18,13,48,21.00
2015,07,18,13,49,20.80
2015,07,18,13,50,20.70
2015,07,18,13,51,20.80
2015,07,18,13,52,21.00
2015,07,18,13,53,21.10
2015,07,18,13,54,21.10
2015,07,18,13,55,21.10
2015,07,18,13,56,21.30
2015,07,18,13,57,21.30
2015,07,18,13,58,21.20
2015,07,18,13,59,21.20
2015,07,18,14,00,21.30
2015,07,18,14,01,21.30
2015,07,18,14,02,21.20
2015,07,18,14,03,21.10
2015,07,18,14,04,20.90
2015,07,18,14,05,20.90
2015,07,18,14,06,20.80
2015,07,18,14,07,20.80
2015,07,18,14,08,20.80
2015,07,18,14,09,20.90
2015,07,18,14,10,21.00
2015,07,18,14,11,21.10
2015,07,18,14,12,21.20
2015,07,18,14,13,21.20
2015,07,18,14,14,21.30
2015,07,18,14,15,21.50
2015,07,18,14,16,21.60
2015,07,18,14,17,21.70
2015,07,18,14,18,21.80
2015,07,18,14,19,21.80
2015,07,18,14,20,21.90
2015,07,18,14,21,22.00
2015,07,18,14,22,22.00
2015,07,18,14,23,21.90
2015,07,18,14,24,21.80
2015,07,18,14,25,21.80
2015,07,18,14,26,21.80
2015,07,18,14,27,21.80
2015,07,18,14,28,22.00
2015,07,18,14,29,22.10
2015,07,18,14,30,22.10
2015,07,18,14,31,22.10
2015,07,18,14,32,22.20
2015,07,18,14,33,22.20
2015,07,18,14,34,22.10
2015,07,18,14,35,22.00
2015,07,18,14,36,22.00
2015,07,18,14,37,22.00
2015,07,18,14,38,22.00
2015,07,18,14,39,22.00
2015,07,18,14,40,22.00
2015,07,18,14,41,22.00
2015,07,18,14,42,22.10
2015,07,18,14,43,22.10
2015,07,18,14,44,22.20
2015,07,18,14,45,22.20
2015,07,18,14,46,22.30
2015,07,18,14,47,22.30
2015,07,18,14,48,22.40
2015,07,18,14,49,22.40
2015,07,18,14,50,22.40
2015,07,18,14,51,22.50
2015,07,18,14,52,22.40
2015,07,18,14,53,22.50
2015,07,18,14,54,22.60
2015,07,18,14,55,22.60
2015,07,18,14,56,22.70
2015,07,18,14,57,22.80
2015,07,18,14,58,23.00
2015,07,18,14,59,23.30
2015,07,18,15,00,23.40
2015,07,18,15,01,23.60
2015,07,18,15,02,23.70
2015,07,18,15,03,23.90
2015,07,18,15,04,24.10
2015,07,18,15,05,24.30
2015,07,18,15,06,24.50
2015,07,18,15,07,24.50
2015,07,18,15,08,24.50
2015,07,18,15,09,24.70
2015,07,18,15,10,24.80
2015,07,18,15,11,25.00
2015,07,18,15,12,25.10
2015,07,18,15,13,25.20
2015,07,18,15,14,25.20
2015,07,18,15,15,25.10
2015,07,18,15,16,24.90
2015,07,18,15,17,24.70
2015,07,18,15,18,24.80
2015,07,18,15,19,24.90
2015,07,18,15,20,24.90
2015,07,18,15,21,24.90
2015,07,18,15,22,24.90
2015,07,18,15,23,24.80
2015,07,18,15,24,24.90
2015,07,18,15,25,25.10
2015,07,18,15,26,25.10
2015,07,18,15,27,24.90
2015,07,18,15,28,24.80
2015,07,18,15,29,24.70
2015,07,18,15,30,24.80
2015,07,18,15,31,24.80
2015,07,18,15,32,24.80
2015,07,18,15,33,24.90
2015,07,18,15,34,24.90
2015,07,18,15,35,24.80
2015,07,18,15,36,24.80
2015,07,18,15,37,24.80
2015,07,18,15,38,24.80
2015,07,18,15,39,24.90
2015,07,18,15,40,24.90
2015,07,18,15,41,25.10
2015,07,18,15,42,25.30
2015,07,18,15,43,25.40
2015,07,18,15,44,25.40
2015,07,18,15,45,25.40
2015,07,18,15,46,25.30
2015,07,18,15,47,25.10
2015,07,18,15,48,24.70
2015,07,18,15,49,24.30
2015,07,18,15,50,24.00
2015,07,18,15,51,23.80
2015,07,18,15,52,23.70
2015,07,18,15,53,23.80
2015,07,18,15,54,23.70
2015,07,18,15,55,23.50
2015,07,18,15,56,23.40
2015,07,18,15,57,23.40
2015,07,18,15,58,23.40
2015,07,18,15,59,23.40
2015,07,18,16,00,23.30
2015,07,18,16,01,23.30
2015,07,18,16,02,23.30
2015,07,18,16,03,23.30
2015,07,18,16,04,23.30
2015,07,18,16,05,23.30
2015,07,18,16,06,23.40
2015,07,18,16,07,23.60
2015,07,18,16,08,23.70
2015,07,18,16,09,23.60
2015,07,18,16,10,23.60
2015,07,18,16,11,23.40
2015,07,18,16,12,23.30
2015,07,18,16,13,23.30
2015,07,18,16,14,23.30
2015,07,18,16,15,23.20
2015,07,18,16,16,23.20
2015,07,18,16,17,23.30
2015,07,18,16,18,23.40
2015,07,18,16,19,23.50
2015,07,18,16,20,23.70
2015,07,18,16,21,24.00
2015,07,18,16,22,24.20
2015,07,18,16,23,24.40
2015,07,18,16,24,24.50
2015,07,18,16,25,24.30
2015,07,18,16,26,24.00
2015,07,18,16,27,23.80
2015,07,18,16,28,23.70
2015,07,18,16,29,23.70
2015,07,18,16,30,23.70
2015,07,18,16,31,23.80
2015,07,18,16,32,23.90
2015,07,18,16,33,24.10
2015,07,18,16,34,24.10
2015,07,18,16,35,24.20
2015,07,18,16,36,24.20
2015,07,18,16,37,24.10
2015,07,18,16,38,24.00
2015,07,18,16,39,23.90
2015,07,18,16,40,23.80
2015,07,18,16,41,23.70
2015,07,18,16,42,23.70
2015,07,18,16,43,23.70
2015,07,18,16,44,23.70
2015,07,18,16,45,23.70
2015,07,18,16,46,23.70
2015,07,18,16,47,23.80
2015,07,18,16,48,23.80
2015,07,18,16,49,23.80
2015,07,18,16,50,23.90
2015,07,18,16,51,24.00
2015,07,18,16,52,24.10
2015,07,18,16,53,24.20
2015,07,18,16,54,24.20
2015,07,18,16,55,24.30
2015,07,18,16,56,24.30
2015,07,18,16,57,24.40
2015,07,18,16,58,24.40
2015,07,18,16,59,24.40
2015,07,18,17,00,24.30
2015,07,18,17,01,24.20
2015,07,18,17,02,24.20
2015,07,18,17,03,24.30
2015,07,18,17,04,24.30
2015,07,18,17,05,24.20
2015,07,18,17,06,24.20
2015,07,18,17,07,24.20
2015,07,18,17,08,24.10
2015,07,18,17,09,24.10
2015,07,18,17,10,24.10
2015,07,18,17,11,24.10
2015,07,18,17,12,24.10
2015,07,18,17,13,24.10
2015,07,18,17,14,24.10
2015,07,18,17,15,24.10
2015,07,18,17,16,24.10
2015,07,18,17,17,24.10
2015,07,18,17,18,24.20
2015,07,18,17,19,24.20